Location: Terra Rouge Observatory
(46.0000°N, 62.7500°W)
Time: 13:11:26
(UTC-03:00)

Amateur Radio Satellites - All Passes

Search period start: 24 August 2016 12:41
Search period end: 25 August 2016 12:41
Location: Terra Rouge Observatory, 46.0000°N, 62.7500°W

Satellite Date Start Highest point End Downlink Frequencies (MHz)
Time Altitude Azimuth
AUBIESAT-1 24 Aug 12:41:50 12:46:07 90° 224° (SW) 12:50:02 437.475
50 SAT 24 Aug 12:41:58 12:45:23 38° 98° (E) 12:48:48 437.505
M-CUBED/EXP-1 PRIME 24 Aug 12:44:02 12:48:23 71° 291° (WNW) 12:52:21 437.505
PCSat 24 Aug 12:44:26 12:49:15 34° 111° (ESE) 12:54:06 145.827
VELOX 1 24 Aug 12:45:10 12:49:26 42° 98° (E) 12:53:40 145.980
BEESAT 3 24 Aug 12:48:33 12:51:47 24° 319° (NW) 12:55:03 437.485
POPSAT HIP 1 24 Aug 12:49:54 12:53:23 24° 266° (W) 12:56:54 437.405
CUSAT 1 24 Aug 12:51:41 12:56:08 22° 271° (W) 13:01:17 437.405
CUBEBUG 1 24 Aug 12:57:30 13:01:58 71° 102° (ESE) 13:06:23 437.445
BUGSAT 1 24 Aug 12:57:31 13:01:37 46° 261° (W) 13:05:45 437.445
ISS 24 Aug 13:00:14 13:03:18 35° 348° (NNW) 13:06:22 145.825
ESTCUBE 1 24 Aug 13:09:06 13:13:35 61° 287° (WNW) 13:18:03 437.505/2401.250
DANDE 24 Aug 13:10:50 13:15:02 29° 266° (W) 13:20:18 436.750
Gurwin Techsat 1B 24 Aug 13:11:56 13:16:13 26° 62° (ENE) 13:20:32 435.225
DX 1 24 Aug 13:15:46 13:20:08 60° 101° (ESE) 13:24:28 434.975-435.025
QB50P2 24 Aug 13:21:47 13:23:09 11° 272° (W) 13:24:31 145.880/145.840
DUCHIFAT 1 24 Aug 13:24:18 13:26:08 12° 271° (W) 13:27:58 145.980
POLYITAN 1 24 Aug 13:24:25 13:25:42 11° 272° (W) 13:27:00 437.675
AO-7 24 Aug 13:27:16 13:32:21 18° 42° (NE) 13:37:26 29.400- 29.500
AO-85 24 Aug 13:27:53 13:30:11 14° 27° (NNE) 13:32:24 145.980
SPROUT 24 Aug 13:33:28 13:37:47 73° 102° (ESE) 13:42:02 437.525
AISAT 24 Aug 13:33:40 13:38:06 59° 287° (WNW) 13:42:28 437.250
ITAMSAT 1 24 Aug 13:39:59 13:42:58 16° 57° (ENE) 13:45:56 435.822/435.867
AIST 2 24 Aug 13:59:44 14:03:46 61° 122° (ESE) 14:07:52 435.215
RS-15 24 Aug 14:01:34 14:09:56 22° 262° (W) 14:18:13 29.354- 29.394
BEESAT 2 24 Aug 14:01:59 14:03:52 13° 329° (NNW) 14:05:44 435.950
UKube-1 24 Aug 14:03:49 14:08:04 55° 289° (WNW) 14:12:18 .
Cosmos 2499 24 Aug 14:04:30 14:12:37 59° 283° (WNW) 14:20:10 435.465 / 435.565
TISAT 1 24 Aug 14:06:52 14:10:48 36° 98° (E) 14:14:41 437.305
Oscar 19 24 Aug 14:11:01 14:16:03 52° 260° (W) 14:21:08 437.125/150
GONETS M04 24 Aug 14:12:42 14:21:02 47° 288° (WNW) 14:29:31
50 SAT 24 Aug 14:16:19 14:18:42 17° 295° (WNW) 14:21:05 437.505
AUBIESAT-1 24 Aug 14:18:12 14:19:48 12° 309° (NW) 14:21:23 437.475
M-CUBED/EXP-1 PRIME 24 Aug 14:21:32 14:21:58 10° 311° (NW) 14:22:25 437.505
VELOX 1 24 Aug 14:22:11 14:25:39 22° 296° (WNW) 14:29:06 145.980
JAS-2 24 Aug 14:26:05 14:27:03 10° 276° (W) 14:28:01 435.910
PCSat 24 Aug 14:27:24 14:32:32 43° 311° (NW) 14:37:44 145.827
ITUPSAT 1 24 Aug 14:27:38 14:29:50 13° 89° (E) 14:32:03 437.325
CUBEBUG 1 24 Aug 14:35:16 14:37:42 15° 300° (WNW) 14:40:07 437.445
ISS 24 Aug 14:37:18 14:40:19 31° 8° (N) 14:43:18 145.825
Gurwin Techsat 1B 24 Aug 14:50:44 14:55:53 50° 260° (W) 15:01:04 435.225
DX 1 24 Aug 14:53:06 14:55:51 16° 299° (WNW) 14:58:36 434.975-435.025
SWISSCUBE 24 Aug 15:01:17 15:05:31 31° 96° (E) 15:09:44 437.505
AO-85 24 Aug 15:07:19 15:11:40 59° 50° (NE) 15:15:39 145.980
SPROUT 24 Aug 15:11:04 15:13:09 13° 300° (WNW) 15:15:14 437.525
AO-7 24 Aug 15:15:21 15:23:34 63° 64° (ENE) 15:31:46 29.400- 29.500
ITAMSAT 1 24 Aug 15:16:32 15:21:45 86° 257° (WSW) 15:26:58 435.822/435.867
O/OREOS (USA 219) 24 Aug 15:18:38 15:23:05 72° 112° (ESE) 15:27:37 437.305
BEESAT 24 Aug 15:18:42 15:23:12 41° 98° (E) 15:27:41 436.000
AIST 2 24 Aug 15:39:27 15:42:37 21° 322° (NW) 15:45:49 435.215
TISAT 1 24 Aug 15:42:55 15:46:15 23° 295° (WNW) 15:49:33 437.305
ITUPSAT 1 24 Aug 16:03:27 16:08:14 78° 286° (WNW) 16:13:00 437.325
Cosmos 2499 24 Aug 16:04:20 16:07:28 13° 306° (NW) 16:10:33 435.465 / 435.565
MOZHAYETS 4 24 Aug 16:06:10 16:09:33 20° 92° (E) 16:12:55
YUBILEINY 24 Aug 16:13:10 16:18:25 17° 53° (NE) 16:23:38 435.215
ISS 24 Aug 16:13:47 16:17:05 85° 27° (NNE) 16:20:22 145.825
PCSat 24 Aug 16:15:06 16:17:26 13° 334° (NNW) 16:19:47 145.827
GONETS M04 24 Aug 16:18:52 16:20:42 11° 315° (NW) 16:22:33
KKS-1 24 Aug 16:27:30 16:31:11 25° 94° (E) 16:34:50 437.445
SWISSCUBE 24 Aug 16:39:03 16:43:18 33° 294° (WNW) 16:47:32 437.505
AO-85 24 Aug 16:48:58 16:51:32 16° 250° (WSW) 16:54:00 145.980
HORYU 2 24 Aug 16:49:57 16:54:13 45° 70° (ENE) 16:58:29 437.375
BEESAT 24 Aug 16:56:53 17:00:48 26° 296° (WNW) 17:04:41 436.000
O/OREOS (USA 219) 24 Aug 17:00:07 17:03:02 17° 312° (NW) 17:05:58 437.305
ITAMSAT 1 24 Aug 17:00:13 17:01:59 12° 273° (W) 17:03:44 435.822/435.867
AO-7 24 Aug 17:09:27 17:16:47 33° 264° (W) 17:24:10 29.400- 29.500
STARS 24 Aug 17:13:23 17:17:28 36° 98° (E) 17:21:30 437.465
GOMX 1 24 Aug 17:14:42 17:18:05 18° 59° (ENE) 17:21:34 467.674
CUBESAT XI-V 24 Aug 17:16:35 17:19:16 15° 89° (E) 17:21:58 437.345
Cubesat XI-IV 24 Aug 17:18:06 17:22:04 22° 60° (ENE) 17:26:02 437.490
BRITE-PL 24 Aug 17:18:21 17:22:41 34° 66° (ENE) 17:27:21 437.365/2234.400
CUTE-I 24 Aug 17:30:37 17:35:01 27° 63° (ENE) 17:39:26 437.470
LilacSat-2 24 Aug 17:33:10 17:35:52 18° 65° (ENE) 17:38:34 437.200
NOAA 18 24 Aug 17:39:05 17:43:53 31° 63° (ENE) 17:48:42 137.9125
DOVE 4 24 Aug 17:40:32 17:43:31 16° 58° (ENE) 17:46:31 437.250
MOZHAYETS 4 24 Aug 17:42:34 17:46:57 46° 289° (WNW) 17:51:19
NOAA 15 24 Aug 17:43:23 17:48:18 42° 67° (ENE) 17:53:14 137.62
ITUPSAT 1 24 Aug 17:43:48 17:45:16 11° 305° (NW) 17:46:45 437.325
BEESAT 3 24 Aug 17:48:45 17:50:24 12° 31° (NNE) 17:52:02 437.485
ISS 24 Aug 17:51:03 17:53:11 16° 225° (SW) 17:55:18 145.825
Cosmos 2491 24 Aug 17:52:45 17:59:36 27° 80° (E) 18:06:27 435.465 / 435.565
KKS-1 24 Aug 18:03:43 18:07:50 37° 292° (WNW) 18:11:55 437.445
YUBILEINY 24 Aug 18:08:22 18:17:11 69° 78° (ENE) 18:25:51 435.215
HORYU 2 24 Aug 18:27:40 18:30:59 20° 267° (W) 18:34:18 437.375
Cosmos 2504 24 Aug 18:45:03 18:51:57 42° 71° (ENE) 18:58:38 435.465 / 435.565
CINEMA 3 24 Aug 18:47:20 18:50:46 19° 61° (ENE) 18:54:12 145.822/145.860
STARS 24 Aug 18:50:02 18:53:40 25° 295° (WNW) 18:57:16 437.465
GOMX 1 24 Aug 18:50:29 18:55:28 74° 258° (WSW) 19:00:50 467.674
CUBESAT XI-V 24 Aug 18:52:26 18:57:07 67° 287° (WNW) 19:01:47 437.345
Cubesat XI-IV 24 Aug 18:56:23 19:01:41 62° 258° (WSW) 19:07:01 437.490
BRITE-PL 24 Aug 18:56:56 19:01:10 31° 267° (W) 19:05:45 437.365/2234.400
CANX-2 24 Aug 18:58:08 19:00:44 16° 62° (ENE) 19:03:20 2200.000
BEESAT 2 24 Aug 18:59:44 19:02:58 23° 40° (NE) 19:06:13 435.950
CUTE 1.7 + AOD 2 24 Aug 19:04:55 19:07:34 17° 63° (ENE) 19:10:14 437.475
LilacSat-2 24 Aug 19:06:17 19:09:55 38° 262° (W) 19:13:32 437.200
CUTE-I 24 Aug 19:09:41 19:14:49 47° 261° (W) 19:19:59 437.470
HO-68 24 Aug 19:12:39 19:19:16 41° 62° (ENE) 19:25:52 435.675
DOVE 4 24 Aug 19:15:18 19:20:25 88° 256° (WSW) 19:25:46 437.250
NOAA 18 24 Aug 19:19:07 19:24:23 43° 261° (W) 19:29:40 137.9125
NOAA 15 24 Aug 19:23:42 19:28:12 28° 265° (W) 19:32:44 137.62
BEESAT 3 24 Aug 19:24:56 19:28:53 60° 51° (NE) 19:32:48 437.485
AAUSAT CUBESAT 2 24 Aug 19:27:11 19:28:29 11° 59° (ENE) 19:29:46 437.432
COMPASS 1 24 Aug 19:30:20 19:32:46 15° 62° (ENE) 19:35:10 437.405
CUBEBUG 2 24 Aug 19:30:38 19:33:07 14° 60° (ENE) 19:35:35 437.445
UWE-3 24 Aug 19:37:15 19:38:32 11° 58° (ENE) 19:39:49 435.000/436.395/437.385
Cosmos 2491 24 Aug 19:46:53 19:55:34 73° 281° (W) 20:04:23 435.465 / 435.565
PCSat 24 Aug 19:47:01 19:49:44 14° 28° (NNE) 19:52:26 145.827
ZACube-1 24 Aug 19:59:35 20:01:14 12° 59° (ENE) 20:02:50 437.345
YUBILEINY 24 Aug 20:06:08 20:13:13 29° 279° (W) 20:20:16 435.215
AIST 1 24 Aug 20:08:27 20:11:22 17° 67° (ENE) 20:14:16
SEEDS 24 Aug 20:17:48 20:21:55 64° 74° (ENE) 20:26:03 437.485
CINEMA 3 24 Aug 20:22:24 20:27:24 66° 259° (W) 20:32:24 145.822/145.860
STRAND 1 24 Aug 20:23:10 20:28:13 57° 101° (E) 20:33:14 437.568
CANX-2 24 Aug 20:32:03 20:36:11 55° 260° (W) 20:40:20 2200.000
BEESAT 2 24 Aug 20:37:09 20:41:02 48° 239° (WSW) 20:44:53 435.950
Cosmos 2504 24 Aug 20:38:37 20:45:16 39° 273° (W) 20:51:45 435.465 / 435.565
CUTE 1.7 + AOD 2 24 Aug 20:38:54 20:43:00 53° 260° (W) 20:47:09 437.475
AIST 2 24 Aug 20:41:10 20:43:50 16° 34° (NE) 20:46:29 435.215
DOVE 4 24 Aug 20:56:43 20:58:53 12° 275° (W) 21:01:04 437.250
AAUSAT CUBESAT 2 24 Aug 20:59:14 21:03:21 81° 258° (WSW) 21:07:29 437.432
HO-68 24 Aug 21:00:04 21:06:54 46° 261° (W) 21:13:47 435.675
BEESAT 3 24 Aug 21:03:49 21:06:06 15° 249° (WSW) 21:08:23 437.485
COMPASS 1 24 Aug 21:03:49 21:07:52 57° 259° (W) 21:11:58 437.405
CUBEBUG 2 24 Aug 21:04:26 21:09:10 78° 257° (WSW) 21:13:49 437.445
UWE-3 24 Aug 21:09:40 21:14:16 83° 78° (ENE) 21:18:49 435.000/436.395/437.385
Oscar 11 24 Aug 21:10:33 21:14:45 55° 73° (ENE) 21:18:58 145.826/435.025
FUNcube-1 24 Aug 21:13:01 21:17:23 55° 73° (ENE) 21:21:41 145.935
HUMSAT D 24 Aug 21:15:59 21:18:19 15° 62° (ENE) 21:20:40 437.325/437.525
PCSat 24 Aug 21:29:13 21:34:30 48° 51° (NE) 21:39:44 145.827
ZACube-1 24 Aug 21:32:21 21:36:52 88° 256° (WSW) 21:41:18 437.345
DELFI C3 24 Aug 21:33:07 21:36:47 39° 71° (ENE) 21:40:28 145.870
PRISM 24 Aug 21:44:31 21:48:33 45° 100° (E) 21:52:34 437.425
AIST 1 24 Aug 21:45:01 21:49:19 51° 265° (W) 21:53:34
Cosmos 2491 24 Aug 21:48:46 21:54:14 18° 305° (NW) 21:59:46 435.465 / 435.565
AUBIESAT-1 24 Aug 21:55:58 21:59:32 22° 58° (ENE) 22:03:07 437.475
SEEDS 24 Aug 21:56:16 21:58:03 12° 271° (W) 21:59:51 437.485
M-CUBED/EXP-1 PRIME 24 Aug 21:58:06 22:02:02 28° 60° (ENE) 22:06:01 437.505
STRAND 1 24 Aug 22:03:12 22:07:00 22° 299° (WNW) 22:10:48 437.568
Cosmos 2499 24 Aug 22:03:13 22:04:30 10° 51° (NE) 22:05:47 435.465 / 435.565
AIST 2 24 Aug 22:18:44 22:22:57 86° 56° (NE) 22:27:08 435.215
GONETS M04 24 Aug 22:23:06 22:30:10 25° 61° (ENE) 22:37:10
CUBEBUG 1 24 Aug 22:23:49 22:24:21 10° 56° (ENE) 22:24:54 437.445
ESTCUBE 1 24 Aug 22:35:32 22:38:46 20° 63° (ENE) 22:42:01 437.505/2401.250
TIGRISAT 24 Aug 22:39:47 22:42:53 19° 92° (E) 22:45:56 435.000
Oscar 11 24 Aug 22:48:38 22:51:14 15° 270° (W) 22:53:50 145.826/435.025
HUMSAT D 24 Aug 22:49:22 22:53:30 60° 259° (W) 22:57:37 437.325/437.525
UWE-3 24 Aug 22:49:47 22:51:17 11° 272° (W) 22:52:47 435.000/436.395/437.385
FUNcube-1 24 Aug 22:51:07 22:53:57 16° 269° (W) 22:56:44 145.935
AISAT 24 Aug 22:58:08 23:01:21 20° 63° (ENE) 23:04:36 437.250
UNISAT 6 24 Aug 23:06:35 23:10:38 38° 97° (E) 23:14:36 437.425
DELFI C3 24 Aug 23:09:03 23:11:48 18° 268° (W) 23:14:33 145.870
PCSat 24 Aug 23:13:02 23:17:40 29° 250° (WSW) 23:22:16 145.827
PRISM 24 Aug 23:20:36 23:23:33 19° 297° (WNW) 23:26:30 437.425
50 SAT 24 Aug 23:21:47 23:24:46 25° 68° (ENE) 23:27:45 437.505
UKube-1 24 Aug 23:25:49 23:28:56 20° 63° (ENE) 23:32:05 .
QB50P2 24 Aug 23:28:20 23:28:35 10° 87° (E) 23:28:48 145.880/145.840
AUBIESAT-1 24 Aug 23:29:09 23:33:39 52° 255° (WSW) 23:38:12 437.475
POLYITAN 1 24 Aug 23:30:41 23:31:07 10° 87° (E) 23:31:33 437.675
M-CUBED/EXP-1 PRIME 24 Aug 23:31:56 23:36:20 41° 257° (WSW) 23:40:50 437.505
NANOSAT C BR1 24 Aug 23:41:12 23:43:09 13° 89° (E) 23:45:04 145.865
JAS-2 24 Aug 23:42:35 23:45:35 13° 86° (E) 23:48:41 435.910
ANTELSAT 24 Aug 23:43:32 23:47:53 88° 288° (WNW) 23:52:09 437.575/2403.000
VELOX 1 24 Aug 23:44:32 23:48:50 51° 71° (ENE) 23:53:11 145.980
O/OREOS (USA 219) 24 Aug 23:47:13 23:51:09 27° 54° (NE) 23:55:04 437.305
SO-50 24 Aug 23:47:58 23:49:56 12° 108° (ESE) 23:51:55 436.795
Cosmos 2499 24 Aug 23:52:33 23:59:33 56° 76° (ENE) 00:06:28 435.465 / 435.565
CUBEBUG 1 24 Aug 23:55:28 23:59:51 79° 74° (ENE) 00:04:18 437.445
AIST 2 24 Aug 23:59:33 00:00:46 11° 252° (WSW) 00:01:59 435.215
RS-15 25 Aug 00:10:30 00:14:14 12° 91° (E) 00:18:01 29.354- 29.394
ESTCUBE 1 25 Aug 00:10:54 00:15:14 49° 261° (W) 00:19:37 437.505/2401.250
DX 1 25 Aug 00:13:18 00:17:39 72° 73° (ENE) 00:22:02 434.975-435.025
TIGRISAT 25 Aug 00:15:42 00:19:49 43° 289° (WNW) 00:23:51 435.000
CUSAT 1 25 Aug 00:16:43 00:19:24 43° 95° (E) 00:22:38 437.405
GONETS M04 25 Aug 00:19:12 00:28:06 82° 265° (W) 00:36:57
QB50P1 25 Aug 00:21:40 00:25:37 36° 97° (E) 00:29:29 145.935-145.965
SPROUT 25 Aug 00:28:58 00:33:16 75° 74° (ENE) 00:37:36 437.525
POPSAT HIP 1 25 Aug 00:31:16 00:35:20 44° 99° (E) 00:39:22 437.405
AISAT 25 Aug 00:33:11 00:37:30 49° 261° (W) 00:41:52 437.250
BUGSAT 1 25 Aug 00:37:26 00:40:36 21° 93° (E) 00:43:44 437.445
DANDE 25 Aug 00:42:43 00:44:41 19° 92° (E) 00:46:41 436.750
UNISAT 6 25 Aug 00:43:44 00:47:09 23° 295° (WNW) 00:50:30 437.425
50 SAT 25 Aug 00:55:24 00:58:18 23° 265° (W) 01:01:14 437.505
UKube-1 25 Aug 01:00:30 01:04:40 47° 260° (W) 01:08:52 .
TISAT 1 25 Aug 01:00:36 01:04:32 38° 69° (ENE) 01:08:30 437.305
QB50P2 25 Aug 01:00:42 01:04:58 81° 283° (WNW) 01:09:10 145.880/145.840
DUCHIFAT 1 25 Aug 01:02:56 01:07:11 89° 105° (ESE) 01:11:21 145.980
POLYITAN 1 25 Aug 01:03:15 01:07:30 80° 284° (WNW) 01:11:41 437.675
NANOSAT C BR1 25 Aug 01:15:07 01:19:19 64° 287° (WNW) 01:23:28 145.865
VELOX 1 25 Aug 01:22:36 01:25:36 18° 269° (W) 01:28:38 145.980
ANTELSAT 25 Aug 01:22:49 01:23:53 11° 303° (WNW) 01:24:56 437.575/2403.000
SO-50 25 Aug 01:24:49 01:29:41 85° 128° (SE) 01:34:32 436.795
JAS-2 25 Aug 01:24:56 01:31:30 71° 103° (ESE) 01:38:51 435.910
O/OREOS (USA 219) 25 Aug 01:26:23 01:30:40 39° 253° (WSW) 01:34:56 437.305
CUBEBUG 1 25 Aug 01:35:18 01:36:43 11° 272° (W) 01:38:07 437.445
ITUPSAT 1 25 Aug 01:36:12 01:39:47 22° 62° (ENE) 01:43:23 437.325
Cosmos 2499 25 Aug 01:46:24 01:52:11 28° 277° (W) 01:57:56 435.465 / 435.565
DX 1 25 Aug 01:52:30 01:54:21 12° 271° (W) 01:56:12 434.975-435.025
QB50P1 25 Aug 01:57:50 02:01:11 23° 295° (WNW) 02:04:33 145.935-145.965
POPSAT HIP 1 25 Aug 02:07:46 02:10:49 19° 297° (WNW) 02:13:50 437.405
SPROUT 25 Aug 02:08:15 02:09:44 12° 272° (W) 02:11:13 437.525
SWISSCUBE 25 Aug 02:09:55 02:14:27 47° 70° (ENE) 02:19:02 437.505
BUGSAT 1 25 Aug 02:12:15 02:16:08 38° 291° (WNW) 02:19:56 437.445
RS-15 25 Aug 02:12:31 02:23:37 57° 114° (ESE) 02:35:19 29.354- 29.394
GONETS M04 25 Aug 02:18:01 02:23:30 18° 285° (WNW) 02:28:58
Oscar 19 25 Aug 02:19:53 02:24:54 45° 99° (E) 02:29:51 437.125/150
DANDE 25 Aug 02:26:53 02:27:31 11° 294° (WNW) 02:28:10 436.750
BEESAT 25 Aug 02:27:16 02:31:57 63° 72° (ENE) 02:36:40 436.000
TISAT 1 25 Aug 02:37:01 02:40:19 22° 267° (W) 02:43:38 437.305
DUCHIFAT 1 25 Aug 02:41:05 02:42:11 11° 302° (WNW) 02:43:17 145.980
Gurwin Techsat 1B 25 Aug 03:04:08 03:09:22 54° 100° (E) 03:14:33 435.225
SO-50 25 Aug 03:07:08 03:10:47 21° 325° (NW) 03:14:25 436.795
MOZHAYETS 4 25 Aug 03:10:20 03:14:05 26° 65° (ENE) 03:17:52
JAS-2 25 Aug 03:10:56 03:16:06 26° 299° (WNW) 03:21:44 435.910
ITUPSAT 1 25 Aug 03:12:40 03:17:18 50° 260° (W) 03:21:57 437.325
AO-7 25 Aug 03:16:13 03:20:45 15° 86° (E) 03:25:14 29.400- 29.500
ITAMSAT 1 25 Aug 03:27:16 03:31:41 27° 95° (E) 03:36:04 435.822/435.867
KKS-1 25 Aug 03:27:41 03:31:38 31° 67° (ENE) 03:35:37 437.445
PHONESAT 2.4 25 Aug 03:35:45 03:36:40 11° 155° (SSE) 03:37:34 2401.200-2431.200
SWISSCUBE 25 Aug 03:48:53 03:52:30 21° 267° (W) 03:56:08 437.505
Cosmos 2491 25 Aug 03:58:58 04:04:00 16° 53° (NE) 04:09:00 435.465 / 435.565
Oscar 19 25 Aug 03:59:39 04:03:59 27° 297° (WNW) 04:08:18 437.125/150
BEESAT 25 Aug 04:07:13 04:10:10 16° 270° (W) 04:13:08 436.000
STARS 25 Aug 04:12:04 04:16:16 44° 70° (ENE) 04:20:30 437.465
CUBESAT XI-V 25 Aug 04:22:12 04:25:31 20° 63° (ENE) 04:28:52 437.345
RS-15 25 Aug 04:24:49 04:36:18 56° 320° (NW) 04:48:22 29.354- 29.394
Gurwin Techsat 1B 25 Aug 04:44:46 04:48:58 24° 298° (WNW) 04:53:08 435.225
MOZHAYETS 4 25 Aug 04:46:53 04:51:06 37° 263° (W) 04:55:21
KKS-1 25 Aug 05:04:16 05:08:11 29° 264° (W) 05:12:08 437.445
ITAMSAT 1 25 Aug 05:06:25 05:11:18 42° 292° (WNW) 05:16:08 435.822/435.867
AO-7 25 Aug 05:06:36 05:14:57 74° 107° (ESE) 05:23:13 29.400- 29.500
PHONESAT 2.4 25 Aug 05:09:53 05:12:25 25° 171° (S) 05:14:57 2401.200-2431.200
YUBILEINY 25 Aug 05:20:45 05:25:21 15° 73° (ENE) 05:29:57 435.215
BRITE-PL 25 Aug 05:22:15 05:24:10 12° 84° (E) 05:26:05 437.365/2234.400
AO-85 25 Aug 05:25:49 05:28:10 13° 108° (ESE) 05:30:29 145.980
STARS 25 Aug 05:49:30 05:52:49 21° 267° (W) 05:56:10 437.465
Cosmos 2491 25 Aug 05:54:03 06:02:52 66° 77° (ENE) 06:11:38 435.465 / 435.565
NOAA 15 25 Aug 05:57:47 05:59:57 12° 87° (E) 06:02:07 137.62
CUBESAT XI-V 25 Aug 05:58:04 06:02:33 51° 261° (W) 06:07:05 437.345
STRAND 1 25 Aug 06:04:57 06:08:02 16° 58° (ENE) 06:11:08 437.568
HORYU 2 25 Aug 06:14:32 06:18:57 63° 102° (ESE) 06:23:18 437.375
LilacSat-2 25 Aug 06:37:44 06:40:23 18° 92° (E) 06:43:01 437.200
RS-15 25 Aug 06:41:47 06:52:15 32° 352° (N) 07:02:59 29.354- 29.394
PHONESAT 2.4 25 Aug 06:45:49 06:48:22 25° 188° (S) 06:50:54 2401.200-2431.200
GOMX 1 25 Aug 06:50:07 06:55:00 32° 94° (E) 06:59:43 467.674
BRITE-PL 25 Aug 06:57:48 07:03:31 75° 101° (E) 07:09:11 437.365/2234.400
AO-7 25 Aug 07:00:07 07:07:04 31° 307° (NW) 07:14:00 29.400- 29.500
AO-85 25 Aug 07:02:42 07:08:00 82° 123° (ESE) 07:12:59 145.980
Cubesat XI-IV 25 Aug 07:11:05 07:16:10 43° 98° (E) 07:21:12 437.490
YUBILEINY 25 Aug 07:11:43 07:20:29 73° 94° (E) 07:29:17 435.215
DOVE 4 25 Aug 07:12:43 07:16:49 24° 91° (E) 07:20:46 437.250
CUTE-I 25 Aug 07:23:52 07:29:07 57° 101° (E) 07:34:19 437.470
Cosmos 2504 25 Aug 07:25:59 07:33:22 35° 85° (E) 07:40:20 435.465 / 435.565
NOAA 15 25 Aug 07:35:08 07:40:28 88° 100° (E) 07:45:48 137.62
NOAA 18 25 Aug 07:38:13 07:43:42 65° 103° (ESE) 07:49:07 137.9125
STRAND 1 25 Aug 07:41:29 07:46:35 79° 256° (WSW) 07:51:44 437.568
Cosmos 2491 25 Aug 07:51:45 07:59:03 31° 278° (W) 08:06:21 435.465 / 435.565
HORYU 2 25 Aug 07:52:20 07:55:01 16° 300° (WNW) 07:57:41 437.375
LilacSat-2 25 Aug 08:11:20 08:14:50 35° 289° (WNW) 08:18:16 437.200
SO-50 25 Aug 08:14:10 08:18:07 26° 39° (NE) 08:21:58 436.795
CANX-2 25 Aug 08:15:03 08:18:16 21° 93° (E) 08:21:29 2200.000
CINEMA 3 25 Aug 08:15:33 08:19:24 25° 93° (E) 08:23:03 145.822/145.860
CUTE 1.7 + AOD 2 25 Aug 08:21:44 08:25:00 21° 93° (E) 08:28:15 437.475
PHONESAT 2.4 25 Aug 08:22:59 08:24:09 12° 204° (SSW) 08:25:17 2401.200-2431.200
HO-68 25 Aug 08:24:51 08:31:10 32° 95° (E) 08:37:26 435.675
GOMX 1 25 Aug 08:28:02 08:33:07 40° 292° (WNW) 08:38:02 467.674
PRISM 25 Aug 08:36:06 08:40:00 45° 70° (ENE) 08:43:56 437.425
BRITE-PL 25 Aug 08:37:21 08:41:23 20° 300° (WNW) 08:45:24 437.365/2234.400
AAUSAT CUBESAT 2 25 Aug 08:40:29 08:42:32 13° 89° (E) 08:44:35 437.432
COMPASS 1 25 Aug 08:44:47 08:47:46 19° 92° (E) 08:50:44 437.405
AO-85 25 Aug 08:44:59 08:49:00 22° 323° (NW) 08:52:50 145.980
DOVE 4 25 Aug 08:49:48 08:54:47 47° 290° (WNW) 08:59:29 437.250
Cubesat XI-IV 25 Aug 08:51:32 08:56:03 29° 297° (WNW) 09:00:34 437.490
CUBEBUG 2 25 Aug 08:54:04 08:56:58 18° 91° (E) 08:59:48 437.445
RS-15 25 Aug 08:57:45 09:09:09 40° 26° (NNE) 09:20:32 29.354- 29.394
UWE-3 25 Aug 08:58:43 09:00:42 13° 89° (E) 09:02:38 435.000/436.395/437.385
CUTE-I 25 Aug 09:04:41 09:08:46 23° 299° (WNW) 09:12:52 437.470
CUSAT 1 25 Aug 09:05:13 09:06:15 10° 59° (ENE) 09:07:20 437.405
ANTELSAT 25 Aug 09:10:13 09:12:37 14° 60° (ENE) 09:15:01 437.575/2403.000
YUBILEINY 25 Aug 09:10:45 09:18:08 29° 296° (WNW) 09:25:35 435.215
NOAA 15 25 Aug 09:16:28 09:19:33 16° 304° (WNW) 09:22:37 137.62
Cosmos 2504 25 Aug 09:18:09 09:26:26 55° 284° (WNW) 09:34:13 435.465 / 435.565
ZACube-1 25 Aug 09:19:48 09:22:01 14° 89° (E) 09:24:13 437.345
NOAA 18 25 Aug 09:19:49 09:23:52 22° 301° (WNW) 09:27:54 137.9125
STRAND 1 25 Aug 09:26:01 09:26:35 10° 274° (W) 09:27:10 437.568
SEEDS 25 Aug 09:34:35 09:38:48 90° 342° (NNW) 09:43:02 437.485
TIGRISAT 25 Aug 09:40:25 09:44:11 25° 65° (ENE) 09:47:53 435.000
CANX-2 25 Aug 09:50:20 09:54:17 39° 290° (WNW) 09:58:13 2200.000
CINEMA 3 25 Aug 09:52:23 09:56:38 36° 292° (WNW) 10:00:41 145.822/145.860
SO-50 25 Aug 09:54:23 09:58:54 54° 239° (WSW) 10:03:16 436.795
CUTE 1.7 + AOD 2 25 Aug 09:57:03 10:00:58 38° 290° (WNW) 10:04:53 437.475
UNISAT 6 25 Aug 10:07:15 10:11:41 47° 71° (ENE) 10:16:03 437.425
HO-68 25 Aug 10:12:13 10:19:12 56° 294° (WNW) 10:26:07 435.675
PRISM 25 Aug 10:12:50 10:15:33 17° 268° (W) 10:18:17 437.425
AAUSAT CUBESAT 2 25 Aug 10:14:18 10:18:24 60° 286° (WNW) 10:22:30 437.432
AIST 1 25 Aug 10:16:16 10:20:36 81° 98° (E) 10:25:01
COMPASS 1 25 Aug 10:19:34 10:23:31 42° 289° (WNW) 10:27:27 437.405
QB50P2 25 Aug 10:22:35 10:24:20 12° 59° (ENE) 10:26:06 145.880/145.840
DUCHIFAT 1 25 Aug 10:24:57 10:25:59 11° 58° (ENE) 10:27:00 145.980
POLYITAN 1 25 Aug 10:25:03 10:26:53 13° 59° (ENE) 10:28:41 437.675
CUBEBUG 2 25 Aug 10:29:45 10:33:53 46° 289° (WNW) 10:37:53 437.445
Oscar 11 25 Aug 10:31:03 10:35:24 81° 102° (ESE) 10:39:42 145.826/435.025
HUMSAT D 25 Aug 10:31:07 10:33:51 17° 92° (E) 10:36:34 437.325/437.525
ISS 25 Aug 10:31:13 10:34:19 39° 143° (SE) 10:37:26 145.825
BEESAT 2 25 Aug 10:32:39 10:34:53 15° 111° (ESE) 10:37:09 435.950
UWE-3 25 Aug 10:33:25 10:37:37 62° 287° (WNW) 10:41:42 435.000/436.395/437.385
FUNcube-1 25 Aug 10:34:38 10:38:50 83° 100° (E) 10:42:58 145.935
NANOSAT C BR1 25 Aug 10:35:46 10:38:10 15° 61° (ENE) 10:40:34 145.865
DELFI C3 25 Aug 10:42:33 10:46:25 46° 99° (E) 10:50:16 145.870
CUSAT 1 25 Aug 10:43:21 10:49:09 56° 76° (ENE) 10:56:20 437.405
ANTELSAT 25 Aug 10:44:08 10:48:46 77° 257° (WSW) 10:53:20 437.575/2403.000
ZACube-1 25 Aug 10:54:35 10:58:42 56° 287° (WNW) 11:02:45 437.345
BEESAT 3 25 Aug 10:54:51 10:58:36 46° 120° (ESE) 11:02:23 437.485
RS-15 25 Aug 11:11:01 11:23:29 88° 54° (NE) 11:35:44 29.354- 29.394
M-CUBED/EXP-1 PRIME 25 Aug 11:11:31 11:12:41 11° 92° (E) 11:13:50 437.505
SEEDS 25 Aug 11:12:57 11:13:50 11° 301° (WNW) 11:14:43 437.485
DANDE 25 Aug 11:13:15 11:17:46 37° 75° (ENE) 11:23:35 436.750
QB50P1 25 Aug 11:16:13 11:20:10 37° 69° (ENE) 11:24:08 145.935-145.965
TIGRISAT 25 Aug 11:16:21 11:20:41 39° 262° (W) 11:24:58 435.000
Cosmos 2504 25 Aug 11:18:52 11:21:46 12° 308° (NW) 11:24:38 435.465 / 435.565
POPSAT HIP 1 25 Aug 11:25:47 11:29:53 46° 71° (ENE) 11:33:59 437.405
GONETS M04 25 Aug 11:29:00 11:35:37 25° 79° (ENE) 11:42:15
BUGSAT 1 25 Aug 11:29:27 11:32:43 22° 64° (ENE) 11:35:59 437.445
JAS-2 25 Aug 11:41:19 11:46:01 35° 65° (ENE) 11:50:59 435.910
CUBEBUG 1 25 Aug 11:43:28 11:45:20 12° 88° (E) 11:47:13 437.445
UNISAT 6 25 Aug 11:45:11 11:48:37 20° 268° (W) 11:52:01 437.425
QB50P2 25 Aug 11:55:15 11:59:31 81° 255° (WSW) 12:03:51 145.880/145.840
DUCHIFAT 1 25 Aug 11:56:42 12:00:58 88° 70° (ENE) 12:05:16 145.980
AIST 1 25 Aug 11:57:29 11:58:51 11° 297° (WNW) 12:00:14
POLYITAN 1 25 Aug 11:57:46 12:02:05 79° 259° (WSW) 12:06:22 437.675
ESTCUBE 1 25 Aug 12:00:57 12:04:53 28° 95° (E) 12:08:48 437.505/2401.250
DX 1 25 Aug 12:02:12 12:02:36 10° 87° (E) 12:03:01 434.975-435.025
HO-68 25 Aug 12:02:14 12:05:25 14° 315° (NW) 12:08:35 435.675
Oscar 19 25 Aug 12:03:12 12:05:41 14° 55° (NE) 12:08:11 437.125/150
HUMSAT D 25 Aug 12:05:49 12:09:42 44° 289° (WNW) 12:13:34 437.325/437.525
ISS 25 Aug 12:07:36 12:10:47 44° 342° (NNW) 12:13:58 145.825
BEESAT 2 25 Aug 12:08:20 12:12:15 61° 309° (NW) 12:16:12 435.950
NANOSAT C BR1 25 Aug 12:09:10 12:13:24 64° 259° (WSW) 12:17:40 145.865
Oscar 11 25 Aug 12:09:10 12:10:54 12° 301° (WNW) 12:12:38 145.826/435.025
FUNcube-1 25 Aug 12:13:11 12:14:26 11° 301° (WNW) 12:15:42 145.935
PCSat 25 Aug 12:14:13 12:18:34 25° 108° (ESE) 12:22:56 145.827
SPROUT 25 Aug 12:15:04 12:16:02 11° 88° (E) 12:16:59 437.525
DELFI C3 25 Aug 12:18:18 12:20:56 17° 296° (WNW) 12:23:34 145.870
50 SAT 25 Aug 12:20:49 12:23:41 22° 94° (E) 12:26:33 437.505
AISAT 25 Aug 12:21:04 12:24:50 26° 95° (E) 12:28:34 437.250
CUSAT 1 25 Aug 12:25:50 12:31:00 30° 269° (W) 12:37:06 437.405
BEESAT 3 25 Aug 12:33:16 12:36:28 23° 319° (NW) 12:39:42 437.485
